Weather History for Pensacola NAS, FL

Change the Weather History Date:

Friday, December 14, 2012

  Actual Average Record
Temperature  
Mean Temperature 46 °F -  
Max Temperature 52 °F 61 °F 75 °F (2001)
Min Temperature 41 °F 43 °F 27 °F (2010)
Degree Days  
Heating Degree Days 18    
Moisture  
Dew Point 45 °F    
Average Humidity 95    
Maximum Humidity 100    
Minimum Humidity 83    
Precipitation  
Precipitation 0.00 in - - ()
Sea Level Pressure  
Sea Level Pressure 30.26 in    
Wind  
Wind Speed 7 mph (NE)    
Max Wind Speed 10 mph    
Max Gust Speed -    
Visibility 7 miles    
Events Rain    
Averages and records for this station are not official NWS values.
T = Trace of Precipitation, MM = Missing Value Source: NWS Daily Summary

Daily Weather History Graph

Daily Weather History Graph

Search for Another Location

Airport:

Trip Planner

Search our weather history database for the weather conditions in past years. The results will help you decide how hot, cold, wet, or windy it might be!

Date:

Astronomy

Dec. 14, 2012 Rise Set
Actual Time 6:38 AM CST 4:50 PM CST
Civil Twilight 6:11 AM CST 5:16 PM CST
Nautical Twilight 5:41 AM CST 5:46 PM CST
Astronomical Twilight 5:12 AM CST 6:16 PM CST
Moon 7:45 AM CST (12/14) 6:38 PM CST (12/14)
Length of Visible Light 11h 05m
Length of Day
10h 12m
Waxing Crescent, 3% of the Moon is Illuminated
Dec 14
Waxing Crescent
Dec 19
First Quarter
Dec 28
Full
Jan 4
Last Quarter
Jan 11
New

Hourly Weather History & Observations

Time (CST) Temp. Windchill Dew Point Humidity Pressure Visibility Wind Dir Wind Speed Gust Speed Precip Events Conditions
12:56 AM 46.9 °F - 45.0 °F 93% 30.27 in 10.0 mi NE 5.8 mph - 0.00 in   Clear
1:56 AM 46.9 °F - 46.0 °F 97% 30.27 in 10.0 mi NE 8.1 mph - N/A   Clear
2:56 AM 46.9 °F - 46.0 °F 97% 30.26 in 9.0 mi NE 8.1 mph - N/A   Clear
3:56 AM 45.0 °F 43.5 °F 44.1 °F 97% 30.28 in 10.0 mi North 3.5 mph - N/A   Clear
4:56 AM 41.0 °F 36.4 °F 41.0 °F 100% 30.27 in 8.0 mi NNE 6.9 mph - N/A   Clear
5:04 AM 42.8 °F 38.6 °F 42.8 °F 100% 30.26 in 8.0 mi NE 6.9 mph - N/A   Scattered Clouds
5:13 AM 44.6 °F 42.2 °F 44.6 °F 100% 30.28 in 9.0 mi NNE 4.6 mph - 0.00 in Rain Light Rain
5:40 AM 44.6 °F 39.2 °F 44.6 °F 100% 30.28 in 8.0 mi ENE 10.4 mph - 0.00 in   Overcast
5:56 AM 44.1 °F 39.5 °F 43.0 °F 96% 30.29 in 5.0 mi NE 8.1 mph - N/A   Overcast
6:33 AM 42.8 °F 38.0 °F 42.8 °F 100% 30.29 in 2.0 mi NE 8.1 mph - N/A   Overcast
6:47 AM 44.6 °F 41.4 °F 42.8 °F 93% 30.30 in 1.5 mi NNE 5.8 mph - N/A   Overcast
6:56 AM 43.0 °F 39.5 °F 43.0 °F 100% 30.31 in 1.0 mi NE 5.8 mph - N/A   Overcast
7:39 AM 44.6 °F 41.4 °F 44.6 °F 100% 30.31 in 1.5 mi NE 5.8 mph - N/A   Overcast
7:56 AM 45.0 °F 40.1 °F 45.0 °F 100% 30.31 in 1.0 mi ENE 9.2 mph - N/A   Overcast
8:16 AM 46.4 °F 42.4 °F 46.4 °F 100% 30.31 in 0.8 mi ENE 8.1 mph - N/A   Overcast
8:56 AM 46.0 °F 42.5 °F 46.0 °F 100% 30.33 in 0.8 mi NE 6.9 mph - N/A   Overcast
9:45 AM 46.4 °F 41.9 °F 46.4 °F 100% 30.33 in 1.0 mi ENE 9.2 mph - N/A   Overcast
9:56 AM 46.0 °F 41.9 °F 46.0 °F 100% 30.33 in 1.0 mi ENE 8.1 mph - N/A   Overcast
10:36 AM 46.4 °F 41.9 °F 46.4 °F 100% 30.31 in 2.0 mi ENE 9.2 mph - N/A   Overcast
10:56 AM 46.9 °F - 46.0 °F 97% 30.31 in 6.0 mi ENE 8.1 mph - N/A   Overcast
11:56 AM 46.9 °F - 45.0 °F 93% 30.29 in 10.0 mi East 5.8 mph - N/A   Overcast
12:56 PM 48.9 °F - 45.0 °F 86% 30.25 in 10.0 mi NE 9.2 mph - N/A   Overcast
1:35 PM 48.2 °F - 44.6 °F 87% 30.24 in 10.0 mi NNE 5.8 mph - N/A   Overcast
1:56 PM 48.9 °F - 44.1 °F 83% 30.25 in 10.0 mi NNE 6.9 mph - N/A   Overcast
2:56 PM 50.0 °F - 45.0 °F 83% 30.24 in 10.0 mi North 4.6 mph - N/A   Overcast
3:56 PM 48.9 °F - 45.0 °F 86% 30.24 in 10.0 mi North 5.8 mph - N/A   Mostly Cloudy
4:56 PM 48.9 °F - 45.0 °F 86% 30.22 in 10.0 mi NE 5.8 mph - N/A   Mostly Cloudy
5:56 PM 46.9 °F - 43.0 °F 86% 30.22 in 10.0 mi Calm Calm - N/A   Mostly Cloudy
6:56 PM 43.0 °F 40.3 °F 42.1 °F 97% 30.20 in 10.0 mi NE 4.6 mph - N/A   Mostly Cloudy
7:56 PM 44.1 °F 39.5 °F 43.0 °F 96% 30.18 in 10.0 mi East 8.1 mph - N/A   Scattered Clouds
8:56 PM 52.0 °F - 48.9 °F 89% 30.17 in 10.0 mi ESE 5.8 mph - N/A   Mostly Cloudy
9:44 PM 51.8 °F - 48.2 °F 88% 30.17 in 10.0 mi North 3.5 mph - 0.00 in   Mostly Cloudy
9:56 PM 51.1 °F - 48.9 °F 92% 30.19 in 10.0 mi NNW 4.6 mph - 0.00 in   Overcast
10:56 PM 48.9 °F - 46.9 °F 93% 30.17 in 10.0 mi NNW 4.6 mph - N/A   Overcast
11:56 PM 48.9 °F - 46.9 °F 93% 30.16 in 10.0 mi North 3.5 mph - N/A   Overcast